woensdag 21 februari 2018 | Home | Bestenlijsten | Nieuws | Uitslagen | Videos | Wedstrijden | VZA Ranglijsten | Weer |
 
 
Recent nieuws meer nieuws
19-02: Terugblik op Kapelleloop 2018
04-02: Erwin Harmes oppermachtig in Halve Marathon van Cadzand
22-01: Erwin Harmes is ook in 46e Deltacross ongrijpbaar
22-01: 7e Kapelse bosloop/cross in nieuw jasje
21-01: Erwin Harmes voegt na serie missers alsnog Goese Wallenloop aan zegelijst toe
31-12: Erwin Harmes en Marlies Kort domineren Tankloop
Wedstrijdagenda meer wedstrijden
za 24-02: Halve van Axel
zo 25-02: 3e Natuurloop Cadzand
za 03-03: Scheldesportloop Terneuzen
za 03-03: 29e Kustcross Vlissingen
za 10-03: 46e Pannekoekloop Westenschouwen
za 10-03: Corn Boys Loop Sas van Gent
za 10-03: Krokusloop Hulst
zo 11-03: 44e CPC Loop Den Haag
zo 11-03: 4e Natuurloop Cadzand-Bad
za 17-03: 51e Massaloop Oostkapelle
zo 18-03: 4e Stevensloop Nijmegen
zo 18-03: 25e Zwinstedenloop Sluis
zo 18-03: 30e Parelloop Brunssum
za 24-03: 2e Dow trimloop Terneuzen
za 24-03: 7e Ronde van BRU Bruinisse
zo 25-03: 13e Venloop
Recente uitslagen meer uitslagen
zo 18-02: 7e Kapellecross Kapelle-Biezelinge (53)
za 17-02: 13e Zwaarste 10 van Zeeland Westenschouwen (202)
za 17-02: 25 km Scheldeloop Terneuzen (116)
za 10-02: Erpelkappersloop Axel (139)
za 10-02: 24e Grevelingen cross Bruinisse (102)
zo 04-02: 27e Midwinter Halve Marathon Cadzand (374)
za 03-02: 20e Rammekensloop Ritthem (297)
za 27-01: 4e Scheldesport cross Westdorpe (72)
za 27-01: Eugene Vink Memorial Westdorpe (128)
za 20-01: 1e Dow trimloop Terneuzen (111)
za 13-01: 20e Steense Rattenloop Sint Jansteen (123)
za 13-01: 46e Deltacross Westenschouwen (247)
zo 07-01: Scheidsrechtersloop Vlissingen (98)
 
Zoek tenminste met 3 tekens van wedstrijd, datum, plaats of atleet
28e Kustcross
Vlissingen, zaterdag 4 maart 2017 - Organisatie: Dynamica
10.14 km
PltsNaam
Tijdkm/umin/km
1  Tim PleijteDynamica35.19Mse   17.227  3:29
2  Eric WolfertFlakkee37.44Mse   16.124  3:43
3  Michael DewildeSMO37.46M35   16.109  3:43
4  David BoumanFlakkee37.56Mse   16.039  3:44
5  Michiel LelieRKHAV39.06Mse   15.560  3:51
6  Michel BuijckDynamica39.24M40   15.442  3:53
7  Arjo VerhageDynamica40.49M45   14.906  4:02
8  Willem de KorteGonzalez Running40.56Mse   14.863  4:02
9  Benny ThuyRKHAV41.10M45   14.779  4:04
10  Chris de SmitRKHAV41.24M35   14.696  4:05
11  Wilko de VosAV'5641.29M50   14.666  4:05
12  Piet van MourikDelta Sport42.04M50   14.463  4:09
13  Jan den DobbelaereSHO42.20M45   14.372  4:10
14  Adriaan WielesScheldesport42.37M45   14.276  4:12
15  Edwin van AlphenDynamica43.11M45   14.089  4:16
16  Rob SchaapVlissingen43.55M55   13.854  4:20
17  Martijn de VriesMiddelburg44.04M35   13.806  4:21
18  Henrik WesterweeleDynamica44.07M35   13.791  4:21
19  Mirthe OverkampPhoenix44.24Vse   13.703  4:23
20  Erwin AdanDynamica44.29Mse   13.677  4:23
21  Bart de VisserSerooskerke44.32Mse   13.662  4:24
22  Frederique VersluijsWielingen44.37V45   13.636  4:24
23  Ronald GeertseSerooskerke44.43M35   13.606  4:25
24  Francois v d BroeckeWielingen44.52M45   13.560  4:25
25  Ruud GoedhartFlakkee45.08Mse   13.480  4:27
26  Barry de GrootSteenbergen45.16M35   13.440  4:28
27  Rian van den BroekeDynamica45.20M55   13.421  4:28
28  Robin de VosAV'5645.36Mse   13.342  4:30
29  Jeroen de NoodDynamica45.57M35   13.240  4:32
30  Remco KapteijnAV'5646.05M40   13.202  4:33
31  Henk LousDynamica46.09M55   13.183  4:33
32  Danmar DeesAV'5646.12M45   13.169  4:33
33  Alwin de ZeeuwScheldesport46.56M45   12.963  4:38
34  Walther MurreScheldesport47.09M45   12.903  4:39
35  Kees den HollanderDreischor47.11M45   12.894  4:39
36  Johan Loois?47.37Mse   12.777  4:42
37  Jaap van der VeenScheldesport47.58M45   12.684  4:44
38  Albert PlatteeuwScheldesport48.28M50   12.553  4:47
39  Pieter MoelkerKloetinge49.30M45   12.291  4:53
40  Jacques ZamanScheldesport49.51M55   12.205  4:55
41  Monica SanderseDynamica49.53Vse   12.196  4:55
42  Siem CornelisseDynamica50.04M65   12.152  4:56
43  Marco BrandesMiddelburg50.07M35   12.140  4:57
44  Renate de ReusVlissingen50.21Vse   12.083  4:58
45  Johan de VliegerDynamica50.28M60   12.055  4:59
46  Martin FaasFlakkee50.30M45   12.048  4:59
47  Durby MeijboomVlissingen50.58V35   11.937  5:02
48  Gerard BrasDynamica51.25M60   11.833  5:04
49  Ron DellebekeDynamica51.36M55   11.791  5:05
50  Jan HeshofSteenbergen51.43M45   11.764  5:06
51  John GuequierreDynamica52.10M65   11.663  5:09
52  Piet BeijerDynamica52.56M65   11.494  5:13
53  Maartje KasteleinVlissingen52.58Vse   11.486  5:13
54  Dave LouwsDynamica53.13M65   11.433  5:15
55  Jannie de VriesDynamica53.19V55   11.411  5:15
56  Stefan van HemertMiddelburg53.55Mse   11.284  5:19
57  Johan DekkerMiddelburg54.04M55   11.253  5:20
58  Rian FlikweertDynamica54.11V55   11.229  5:21
59  Petra VerhulstDynamica54.38V45   11.136  5:23
60  Maurice SteketeeMiddelburg54.42M35   11.122  5:24
61  Bram van EenennaamNieuw- en Sint Joosland55.04M55   11.048  5:26
62  Ad van den BergAV'5655.52M35   10.890  5:31
63  Marjan HamelinckRKHAV56.24V45   10.787  5:34
64  Marcel SchoulsDynamica56.38M45   10.743  5:35
65  Kobus BotmanDynamica56.51M65   10.702  5:36
66  Evert JobseOost-Souburg57.55Mse   10.505  5:43
67  Imo JongepierNieuw- en Sint Joosland58.29M65   10.403  5:46
68  Ineke TempelaarDynamica59.53V55   10.160  5:54
69  Lena KleingeldVlissingen1.00.56V55   9.985  6:01
70  Berry HeereboutDynamica1.01.41M65   9.863  6:05
71  Abheeru DaansenOost-Souburg1.05.24M55   9.303  6:27
72  Hans van SluijsDynamica1.05.26M65   9.298  6:27
73  Lenie van KlevenVlissingen1.06.01V60   9.216  6:31
Mannen: 60 (82.19%) => M35=10 - M40=2 - M45=15 - M50=3 - M55=8 - M60=2 - M65=8 - Mse=12
Vrouwen: 13 (17.81%) => V35=1 - V45=3 - V55=4 - V60=1 - Vse=4
3.22 km
PltsNaam
Tijdkm/umin/km
1  Maikel PeemanFlakkee11.13Mse   17.224  3:29
2  Bezuayehu PetersenAV'5611.24JoB   16.947  3:32
3  Bereket PetersenAV'5611.30JoB   16.800  3:34
4  Wouter VerstraateWestkapelle12.09Mse   15.901  3:46
5  Franklin van AnrooijAV'5612.21Mse   15.644  3:50
6  Niels van TuilAV'5612.25JoB   15.560  3:51
7  Bart BalkenendeAV'5612.27Mse   15.518  3:52
8  Paavo de LengDynamica12.30JoB   15.456  3:53
9  Marc van AckerHulst12.34Mse   15.374  3:54
10  Dennis ThuyRKHAV12.44Mse   15.173  3:57
11  Anjolie EngelsVZA12.49V40   15.074  3:59
12  Ewout van SluisFlakkee13.09Mse   14.692  4:05
13  Matthijs van DriesscheRKHAV13.20Mse   14.490  4:08
14  Veerle van CampenhoutRKHAV14.50Vse   13.025  4:36
15  Mirthe de ZeeuwScheldesport15.10MeB   12.738  4:43
16  Ronny VersluijsWielingen15.15M45   12.669  4:44
17  Emma van MourikDelta Sport15.22Vse   12.573  4:46
18  Jos de KreekScheldesport15.30M50   12.465  4:49
19  Judith DierenFlakkee16.02MeB   12.050  4:59
20  Paulette de KrakerDynamica16.27Vse   11.745  5:07
21  Esther van SluijsAV'5617.00V40   11.365  5:17
22  Naomi Schelfhout?17.42Vse   10.915  5:30
23  Peter van OrsouwOss17.52Mse   10.813  5:33
24  George SchanckWielingen18.24Mse   10.500  5:43
25  Marielle SimonseAV'5619.15V40   10.036  5:59
26  Gisela NijsseAV'5619.55Vse   9.700  6:11
Mannen: 12 (46.15%) => M45=1 - M50=1 - Mse=10
Vrouwen: 8 (30.77%) => V40=3 - Vse=5
Jongens: 4 (15.38%) => JoB=4

Overzicht Top3, winnares en aantal deelnemers in eerdere jaren

JaarWinnaarTijd2eTijd 3eTijdWinnaresTijd#
2017Maikel Peeman11:13Bezuayehu Petersen11:24Bereket Petersen11:30Anjolie Engels12:4926
2016Jasper Zuidhof11:41Patrick de Vos11:47Franklin van Anrooij11:52Veerle Campenhout14:5127
2015Tommy Staal11:31Wouter Verstraate12:14Jasper Zuidhof12:31Shanice Harmon14:4919


Snelheid en tempo zijn berekend op de vermelde afstand. Bij een onjuiste afstand wijken deze uiteraard af!

Fouten melden via info@atletiekzeeland.nl Categorie fout? Mail dan geboortedatum. (geldt alleen voor Zeeuwen)

De server had 0.13 seconden nodig om deze lijst met 99 prestaties samen te stellen.

Terug naar boven

Vorige uitslagen
DatumWedstrijdPlaatsVereniging Hits
27-02-2016 27e KustcrossVlissingenDynamica1341
07-03-2015 26e KustcrossVlissingenDynamica1684
01-03-2014 25e KustcrossVlissingenDynamica2028
02-03-2013 24e KustcrossVlissingenDynamica1614
03-03-2012 23e KustcrossVlissingenDynamica2000
11-12-2010 22e KustcrossVlissingenDynamica1932
12-12-2009 21e KustcrossVlissingenDynamica1815
13-12-2008 20e KustcrossVlissingenDynamica939
17-02-2007 18e KustcrossVlissingenDynamica1454
15-12-2007 19e KustcrossVlissingenDynamica1406
25-02-2006 17e KustcrossVlissingenDynamica1192
19-02-2005 16e KustcrossVlissingenDynamica724
14-02-2004 15e KustcrossVlissingenDynamica783
15-02-2003 14e KustcrossVlissingenDynamica759
23-02-2002 13e KustcrossVlissingenDynamica847
24-02-2001 12e KustcrossVlissingenDynamica702
26-02-2000 11e KustcrossVlissingenDynamica762
20-02-1999 10e KustcrossVlissingenDynamica785

 
Laatste reactie:
Jan Roose: 7e Kapelse Bosloop/cross In Ni..
Recente Zeeuwse prestaties meer prestaties
17-02: NK indoor Senioren Apeldoorn (6)
1500 m Yunis Stitan (PR)4.05.01  Mse
800 m Yunis Stitan (PR)1.56.85  Mse
800 m Aniek Aper (PR 2.16.31)2.18.68  Vse
400 m Pelle Gelderblom (PR 51.26)52.16  Mse
60 m Gennaro Biswane (PR)7.05  Mse
60 m Mariska Bun (PR)7.80  Vse
11-02: NK indoor A/B-junioren Apeldoorn (8)
11-02: 41e Groet uit Schoorl Run (8)
04-02: Midwinter Marathon Apeldoorn (9)
27-01: Sri Chinmoy Races Amsterdam (1)
21-01: Halve Marathon Maassluis (2)
14-01: 46e Halve van Egmond (14)
Atletiek Zeeland © 2018